User: anonymous   Login
Location: Caltech
(34.1382°N, 118.1253°W)
Time: 20:02:25
(UTC-08:00)
Language:

Meteor 1-11 Rocket - Orbit

View from above orbital plane
View from above orbital plane
View from above satellite
View from above satellite

Ground track
Ground track

The orbit data is extracted from the following two-line orbital elements,

1 05918U 72022B   17328.56634981 -.00000022  00000-0 -20231-4 0  9997
2 05918  81.2360 170.7320 0057319 235.6342 123.9397 14.05832552340528
Epoch (UTC): 24 November 2017 13:35:32
Eccentricity: 0.0057319
inclination: 81.2360°
perigee height: 832 km
apogee height: 915 km
right ascension of ascending node: 170.7320°
argument of perigee: 235.6342°
revolutions per day: 14.05832552
mean anomaly at epoch: 123.9397°
orbit number at epoch: 34052

The dashed part of the orbit path shows where the satellite is in the earth's shadow,  

DLR